Location: Le Domaine
(47.0333°N, 76.5361°W)
Time: 03:26:33
(UTC-05:00)

S-56A Canister/Altair - Pass Details

Date: 21 November 2019
Orbit: 633 x 2499 km, 38.9° (Epoch: 06 December)

Event Time Altitude Azimuth Distance (km) Brightness Sun altitude
Rises 13:06:01 0° 179° (S) 5,939 13.3 21.0°
Maximum altitude 13:16:54 10° 139° (SE) 4,384 11.8 20.3°
Drops below altitude 10° 13:16:54 10° 139° (SE) 4,383 11.8 20.3°
Sets 13:25:47 0° 96° (E) 4,709 11.4 19.7°
